Data for 02/12/2017

Time Sea-Level Adjusted Pressure Absolute Pressure Temperature Relative Humidity Dew Point   
(mb) (inHg) (mb) (inHg) (C) (F) (%) (C) (F)
00:05 1029 30.39 858 25.34 -6.2 20.9 59 -12.9 8.8
00:10 1029 30.39 858 25.34 -5.9 21.3 59 -12.7 9.1
00:15 1029 30.39 858 25.34 -5.9 21.4 59 -12.7 9.1
00:20 1029 30.39 858 25.34 -6 21.2 58 -12.9 8.8
00:25 1029 30.39 858 25.34 -6.1 21.1 58 -13 8.6
00:30 1029 30.39 858 25.34 -5.9 21.3 58 -13 8.7
00:35 1029 30.39 858 25.34 -6 21.3 58 -13 8.6
00:40 1029 30.39 859 25.37 -6 21.1 58 -13 8.6
00:45 1029 30.39 858 25.34 -6.1 21 58 -13 8.6
00:50 1029 30.39 858 25.34 -6.2 20.9 59 -13 8.5
00:55 1029 30.39 858 25.34 -6.3 20.6 59 -13.1 8.4
01:00 1029 30.39 858 25.34 -6.4 20.5 58 -13.4 7.8
01:05 1029 30.39 858 25.34 -6.3 20.6 58 -13.4 8
01:10 1029 30.39 858 25.34 -6.4 20.5 58 -13.4 7.9
01:15 1029 30.39 858 25.34 -6.5 20.4 58 -13.5 7.7
01:20 1029 30.39 858 25.34 -6.3 20.6 58 -13.4 7.9
01:25 1029 30.39 859 25.37 -6.2 20.8 56 -13.6 7.6
01:30 1029 30.39 859 25.37 -6.2 20.8 56 -13.6 7.6
01:35 1029 30.39 859 25.37 -6.2 20.8 57 -13.5 7.7
01:40 1029 30.39 859 25.37 -6.2 20.9 57 -13.4 8
01:45 1029 30.39 859 25.37 -6.2 20.8 58 -13.3 8.1
01:50 1030 30.42 859 25.37 -6.3 20.6 57 -13.5 7.7
01:55 1030 30.42 859 25.37 -6.2 20.8 58 -13.2 8.2
02:00 1030 30.42 859 25.37 -6.3 20.6 58 -13.3 8.1
02:05 1030 30.42 859 25.37 -6.5 20.3 60 -13.2 8.3
02:10 1030 30.42 859 25.37 -6.7 20 60 -13.1 8.4
02:15 1030 30.42 859 25.37 -6.7 19.9 59 -13.5 7.7
02:20 1030 30.42 859 25.37 -6.6 20.2 58 -13.6 7.6
02:25 1030 30.42 859 25.37 -6.7 20 59 -13.4 8
02:30 1030 30.42 859 25.37 -6.7 19.9 60 -13.2 8.2
02:35 1030 30.42 859 25.37 -6.7 20 60 -13.3 8.1
02:40 1030 30.42 859 25.37 -6.8 19.7 62 -12.9 8.8
02:45 1030 30.42 859 25.37 -6.7 19.9 61 -13 8.6
02:50 1030 30.42 859 25.37 -6.6 20.1 60 -13.2 8.3
02:55 1030 30.42 859 25.37 -6.9 19.7 61 -13.2 8.3
03:00 1030 30.42 859 25.37 -7 19.3 62 -13.1 8.4
03:05 1030 30.42 859 25.37 -7.2 19.1 61 -13.5 7.8
03:10 1030 30.42 859 25.37 -7.1 19.3 60 -13.6 7.6
03:15 1030 30.42 859 25.37 -7 19.4 61 -13.3 8.1
03:20 1030 30.42 859 25.37 -7.2 19 62 -13.4 8
03:25 1030 30.42 859 25.37 -7.3 18.8 62 -13.5 7.7
03:30 1030 30.42 859 25.37 -7.3 18.9 62 -13.4 7.9
03:35 1029 30.39 859 25.37 -7.4 18.7 61 -13.6 7.5
03:40 1029 30.39 859 25.37 -7.6 18.4 63 -13.5 7.7
03:45 1029 30.39 859 25.37 -7.8 17.9 64 -13.5 7.7
03:50 1029 30.39 859 25.37 -8 17.7 64 -13.6 7.5
03:55 1029 30.39 859 25.37 -7.8 18 63 -13.6 7.5
04:00 1029 30.39 859 25.37 -7.6 18.3 62 -13.6 7.4
04:05 1029 30.39 859 25.37 -7.4 18.6 61 -13.7 7.4
04:10 1029 30.39 859 25.37 -7.3 18.8 63 -13.3 8
04:15 1029 30.39 859 25.37 -7.3 18.9 61 -13.5 7.6
04:20 1029 30.39 859 25.37 -7.4 18.7 62 -13.4 7.9
04:25 1029 30.39 859 25.37 -7.7 18.2 64 -13.3 8
04:30 1029 30.39 859 25.37 -7.9 17.8 64 -13.5 7.7
04:35 1029 30.39 859 25.37 -7.9 17.7 65 -13.4 7.9
04:40 1029 30.39 859 25.37 -7.7 18.2 64 -13.4 8
04:45 1029 30.39 859 25.37 -7.4 18.6 63 -13.4 7.9
04:50 1029 30.39 859 25.37 -7.2 19.1 62 -13.3 8
04:55 1029 30.39 859 25.37 -7.3 18.9 62 -13.3 8
05:00 1029 30.39 859 25.37 -7.5 18.6 63 -13.4 7.9
05:05 1029 30.39 859 25.37 -7.5 18.6 63 -13.4 7.9
05:10 1029 30.39 859 25.37 -7.6 18.3 63 -13.5 7.8
05:15 1029 30.39 859 25.37 -8 17.7 64 -13.6 7.5
05:20 1029 30.39 859 25.37 -7.9 17.7 63 -13.7 7.3
05:25 1030 30.42 859 25.37 -7.9 17.8 63 -13.8 7.2
05:30 1030 30.42 859 25.37 -7.9 17.7 63 -13.7 7.3
05:35 1030 30.42 859 25.37 -7.9 17.8 63 -13.7 7.3
05:40 1030 30.42 859 25.37 -8 17.6 64 -13.7 7.3
05:45 1030 30.42 859 25.37 -8.1 17.5 64 -13.8 7.1
05:50 1030 30.42 859 25.37 -8.2 17.2 65 -13.8 7.2
05:55 1030 30.42 859 25.37 -8.4 16.8 66 -13.7 7.4
06:00 1030 30.42 859 25.37 -8.8 16.2 67 -13.8 7.1
06:05 1030 30.42 859 25.37 -8.7 16.3 66 -13.9 6.9
06:10 1029 30.39 859 25.37 -8.7 16.3 67 -13.8 7.1
06:15 1029 30.39 859 25.37 -8.8 16.1 67 -13.8 7.2
06:20 1029 30.39 859 25.37 -9 15.9 68 -13.9 7
06:25 1029 30.39 859 25.37 -8.9 16 67 -13.9 7
06:30 1029 30.39 859 25.37 -8.8 16.1 67 -13.9 6.9
06:35 1029 30.39 858 25.34 -8.9 16 67 -14 6.7
06:40 1029 30.39 858 25.34 -8.9 15.9 67 -14 6.7
06:45 1029 30.39 858 25.34 -8.5 16.8 65 -13.9 7
06:50 1029 30.39 858 25.34 -8.2 17.2 65 -13.6 7.5
06:55 1029 30.39 858 25.34 -8.6 16.6 66 -13.8 7.2
07:00 1029 30.39 858 25.34 -8.5 16.7 65 -13.9 7
07:05 1029 30.39 858 25.34 -8.6 16.5 66 -13.9 7.1
07:10 1029 30.39 858 25.34 -8.7 16.4 66 -13.8 7.1
07:15 1029 30.39 858 25.34 -8.6 16.6 66 -13.8 7.1
07:20 1029 30.39 858 25.34 -8.5 16.8 65 -13.8 7.1
07:25 1029 30.39 858 25.34 -8.5 16.7 66 -13.8 7.1
07:30 1029 30.39 858 25.34 -8.9 15.9 67 -13.9 6.9
07:35 1029 30.39 858 25.34 -9.3 15.3 69 -14.1 6.7
07:40 1029 30.39 858 25.34 -9.3 15.3 68 -14.2 6.5
07:45 1029 30.39 858 25.34 -9.1 15.6 67 -14.1 6.6
07:50 1029 30.39 859 25.37 -9 15.8 67 -14 6.7
07:55 1029 30.39 859 25.37 -8.7 16.3 65 -14.2 6.5
08:00 1029 30.39 859 25.37 -8.3 17.2 63 -14.1 6.7
08:05 1029 30.39 859 25.37 -7.8 18 61 -14 6.8
08:10 1029 30.39 859 25.37 -7.4 18.7 60 -14 6.8
08:15 1029 30.39 859 25.37 -7.2 19.1 59 -13.9 7
08:20 1029 30.39 859 25.37 -7.1 19.3 59 -13.8 7.2
08:25 1029 30.39 859 25.37 -6.9 19.5 58 -13.9 7.1
08:30 1029 30.39 859 25.37 -6.8 19.8 57 -13.9 6.9
08:35 1029 30.39 859 25.37 -6.4 20.5 56 -13.8 7.1
08:40 1029 30.39 858 25.34 -6.4 20.4 56 -13.9 7
08:45 1029 30.39 858 25.34 -6 21.1 55 -13.7 7.4
08:50 1029 30.39 858 25.34 -5.5 22 53 -13.6 7.5
08:55 1029 30.39 858 25.34 -5.4 22.3 53 -13.6 7.6
09:00 1029 30.39 858 25.34 -5.2 22.6 51 -13.8 7.2
09:05 1029 30.39 858 25.34 -4.7 23.6 49 -13.8 7.2
09:10 1029 30.39 858 25.34 -4.1 24.6 49 -13.4 7.9
09:15 1029 30.39 858 25.34 -4.2 24.5 49 -13.5 7.8
09:20 1029 30.39 858 25.34 -4.1 24.7 47 -13.7 7.3
09:25 1029 30.39 858 25.34 -4.1 24.6 49 -13.4 7.9
09:30 1029 30.39 858 25.34 -3.9 25 49 -13.1 8.4
09:35 1029 30.39 858 25.34 -3.7 25.3 48 -13.3 8
09:40 1029 30.39 858 25.34 -3.3 26 48 -12.9 8.8
09:45 1029 30.39 858 25.34 -3.1 26.5 46 -13.1 8.4
09:50 1029 30.39 858 25.34 -2.6 27.2 45 -13.1 8.4
09:55 1029 30.39 859 25.37 -2.5 27.6 45 -12.9 8.8
10:00 1029 30.39 859 25.37 -2.2 28.1 42 -13.5 7.6
10:05 1029 30.39 859 25.37 -1.7 29 41 -13.3 8
10:10 1030 30.42 859 25.37 -2.1 28.2 43 -13.1 8.4
10:15 1030 30.42 859 25.37 -2.7 27.2 46 -12.7 9.1
10:20 1030 30.42 859 25.37 -2 28.3 42 -13.3 8.1
10:25 1030 30.42 859 25.37 -1.6 29.2 43 -12.6 9.3
10:30 1030 30.42 859 25.37 -1.2 29.8 41 -12.9 8.7
10:35 1030 30.42 859 25.37 -0.7 30.8 40 -12.7 9.1
10:40 1030 30.42 859 25.37 -0.4 31.2 40 -12.5 9.5
10:45 1030 30.42 859 25.37 -0.7 30.8 40 -12.6 9.4
10:50 1030 30.42 859 25.37 -0.3 31.5 39 -12.6 9.3
10:55 1030 30.42 859 25.37 -0.1 31.8 39 -12.6 9.3
11:00 1030 30.42 859 25.37 -0.2 31.6 39 -12.6 9.3
11:05 1030 30.42 859 25.37 0.4 32.6 37 -12.7 9.2
11:10 1030 30.42 859 25.37 0.7 33.2 39 -11.7 11
11:15 1030 30.42 859 25.37 0.5 33 36 -12.8 8.9
11:20 1030 30.42 859 25.37 0.5 32.8 37 -12.5 9.6
11:25 1030 30.42 859 25.37 0.1 32.1 38 -12.5 9.5
11:30 1030 30.42 859 25.37 -0.4 31.2 39 -12.9 8.8
11:35 1030 30.42 859 25.37 -0 31.9 37 -13.1 8.4
11:40 1030 30.42 859 25.37 0.1 32.3 38 -12.5 9.6
11:45 1029 30.39 859 25.37 0.6 33.2 36 -12.8 8.9
11:50 1029 30.39 859 25.37 0.5 32.9 39 -11.9 10.7
11:55 1029 30.39 859 25.37 0.5 32.9 39 -12.1 10.3
12:00 1029 30.39 859 25.37 0.8 33.4 36 -12.5 9.4
12:05 1029 30.39 859 25.37 0.6 33.1 38 -12.1 10.3
12:10 1029 30.39 858 25.34 1.3 34.4 34 -12.8 8.9
12:15 1029 30.39 858 25.34 1.2 34.1 37 -12.1 10.1
12:20 1029 30.39 858 25.34 0.8 33.4 36 -12.7 9.1
12:25 1029 30.39 858 25.34 1.2 34.2 34 -12.9 8.7
12:30 1029 30.39 858 25.34 1 33.8 33 -13.4 7.8
12:35 1029 30.39 858 25.34 1 33.8 35 -13 8.6
12:40 1029 30.39 858 25.34 1.3 34.3 32 -13.5 7.6
12:45 1029 30.39 858 25.34 1.4 34.5 31 -13.9 6.9
12:50 1029 30.39 858 25.34 1 33.8 32 -13.9 6.9
12:55 1029 30.39 858 25.34 1.2 34.1 31 -14.1 6.7
13:00 1028 30.36 858 25.34 1.7 35.1 31 -13.7 7.4
13:05 1028 30.36 858 25.34 2.1 35.7 30 -13.7 7.3
13:10 1028 30.36 857 25.31 2.5 36.4 30 -13.4 7.9
13:15 1028 30.36 857 25.31 2.8 37.1 32 -12.4 9.7
13:20 1028 30.36 857 25.31 3.5 38.3 27 -13.8 7.2
13:25 1028 30.36 857 25.31 4.3 39.7 27 -13 8.6
13:30 1028 30.36 857 25.31 4.5 40.1 25 -13.7 7.3
13:35 1028 30.36 857 25.31 3.4 38.1 26 -14.4 6.1
13:40 1028 30.36 857 25.31 4 39.2 25 -14.3 6.3
13:45 1028 30.36 857 25.31 2 35.6 29 -14.4 6.1
13:50 1028 30.36 857 25.31 2.1 35.8 27 -14.9 5.3
13:55 1028 30.36 857 25.31 3.1 37.6 27 -14.2 6.4
14:00 1028 30.36 857 25.31 3.3 38 28 -13.5 7.6
14:05 1028 30.36 857 25.31 4.7 40.5 25 -13.6 7.5
14:10 1028 30.36 857 25.31 4.8 40.6 25 -13.8 7.1
14:15 1028 30.36 857 25.31 4.2 39.6 27 -13.4 7.9
14:20 1028 30.36 857 25.31 4.9 40.9 26 -13.3 8.1
14:25 1028 30.36 857 25.31 5.4 41.7 23 -14.4 6.2
14:30 1028 30.36 857 25.31 5.6 42.2 22 -14.5 6
14:35 1028 30.36 857 25.31 5.4 41.8 24 -13.4 7.8
14:40 1028 30.36 857 25.31 5.2 41.4 23 -14.3 6.2
14:45 1028 30.36 857 25.31 5 41 23 -14.4 6.1
14:50 1028 30.36 857 25.31 4.5 40.1 25 -13.7 7.3
14:55 1028 30.36 857 25.31 4.5 40.1 26 -13.5 7.7
15:00 1028 30.36 857 25.31 4.4 39.9 26 -13.8 7.2
15:05 1028 30.36 857 25.31 3.5 38.4 30 -12.3 9.8
15:10 1028 30.36 857 25.31 2.9 37.3 30 -13.2 8.3
15:15 1028 30.36 857 25.31 3.3 38 28 -13.7 7.3
15:20 1028 30.36 857 25.31 3.8 38.8 26 -13.9 6.9
15:25 1028 30.36 857 25.31 3.3 37.9 27 -14.1 6.6
15:30 1028 30.36 857 25.31 3.5 38.3 27 -13.8 7.1
15:35 1028 30.36 857 25.31 3.5 38.3 25 -14.7 5.5
15:40 1028 30.36 857 25.31 4.1 39.5 25 -14.5 6
15:45 1028 30.36 857 25.31 4.8 40.6 23 -14.9 5.2
15:50 1028 30.36 857 25.31 4.8 40.6 23 -14.6 5.8
15:55 1028 30.36 857 25.31 4.5 40.2 23 -14.8 5.3
16:00 1028 30.36 857 25.31 4.2 39.6 23 -15 5
16:05 1028 30.36 857 25.31 3.9 39.1 24 -15.1 4.7
16:10 1028 30.36 857 25.31 4.3 39.7 22 -15.6 4
16:15 1027 30.33 857 25.31 4.3 39.7 23 -15.4 4.3
16:20 1027 30.33 857 25.31 4 39.1 23 -15.7 3.8
16:25 1027 30.33 857 25.31 3.8 38.9 22 -16.2 2.8
16:30 1027 30.33 857 25.31 4.1 39.5 21 -16.5 2.2
16:35 1027 30.33 857 25.31 4.6 40.3 20 -16.3 2.6
16:40 1027 30.33 856 25.28 4.8 40.7 20 -16.2 2.8
16:45 1027 30.33 856 25.28 4.8 40.7 21 -16.1 3.1
16:50 1027 30.33 856 25.28 4.7 40.5 20 -16.3 2.6
16:55 1027 30.33 856 25.28 4.8 40.6 21 -15.9 3.5
17:00 1027 30.33 856 25.28 5 41 21 -15.6 4
17:05 1027 30.33 856 25.28 4.9 40.9 21 -15.9 3.4
17:10 1027 30.33 856 25.28 4.8 40.6 22 -15.1 4.8
17:15 1027 30.33 856 25.28 4.4 39.9 23 -15.2 4.6
17:20 1027 30.33 856 25.28 4.6 40.3 22 -15.5 4.1
17:25 1027 30.33 856 25.28 4.3 39.8 23 -15.1 4.9
17:30 1027 30.33 856 25.28 3.9 39 24 -14.8 5.4
17:35 1027 30.33 856 25.28 3.7 38.7 23 -15.7 3.8
17:40 1027 30.33 856 25.28 3.4 38.2 26 -14.3 6.3
17:45 1027 30.33 856 25.28 3.2 37.8 25 -14.8 5.3
17:50 1027 30.33 856 25.28 2.4 36.4 27 -15 5.1
17:55 1027 30.33 856 25.28 2 35.5 29 -14.4 6
18:00 1027 30.33 856 25.28 1.7 35.1 29 -14.5 5.9
18:05 1027 30.33 856 25.28 1.6 34.8 30 -14.2 6.5
18:10 1027 30.33 856 25.28 1.6 34.8 31 -14 6.8
18:15 1027 30.33 856 25.28 1.5 34.7 32 -13.5 7.6
18:20 1027 30.33 856 25.28 1.1 34 35 -12.8 8.9
18:25 1027 30.33 856 25.28 0.5 32.9 36 -12.9 8.8
18:30 1027 30.33 856 25.28 0.2 32.4 37 -13 8.7
18:35 1027 30.33 856 25.28 0.1 32.1 37 -12.9 8.8
18:40 1027 30.33 856 25.28 -0.3 31.5 39 -12.7 9.1
18:45 1027 30.33 856 25.28 -0.3 31.4 39 -12.7 9.2
18:50 1027 30.33 856 25.28 -0.3 31.5 40 -12.4 9.6
18:55 1027 30.33 856 25.28 -0.2 31.7 41 -12 10.4
19:00 1027 30.33 856 25.28 -0.4 31.2 42 -12 10.5
19:05 1027 30.33 856 25.28 -0.6 31 40 -12.5 9.5
19:10 1027 30.33 856 25.28 -0.6 30.9 43 -11.7 10.9
19:15 1027 30.33 856 25.28 -0.6 30.9 41 -12.2 10
19:20 1027 30.33 856 25.28 -0.5 31 41 -12.4 9.7
19:25 1027 30.33 856 25.28 -0.6 30.9 40 -12.6 9.4
19:30 1027 30.33 856 25.28 -1 30.3 42 -12.3 9.8
19:35 1027 30.33 856 25.28 -1 30.2 41 -12.6 9.3
19:40 1027 30.33 856 25.28 -1.1 30.1 41 -12.8 8.9
19:45 1027 30.33 856 25.28 -0.9 30.4 41 -12.7 9.2
19:50 1027 30.33 856 25.28 -0.8 30.6 40 -12.6 9.2
19:55 1027 30.33 856 25.28 -0.9 30.4 42 -12.2 10.1
20:00 1026 30.3 856 25.28 -1.2 29.9 43 -12.3 9.8
20:05 1026 30.3 856 25.28 -1 30.2 42 -12.3 9.8
20:10 1026 30.3 856 25.28 -0.8 30.6 41 -12.4 9.7
20:15 1026 30.3 855 25.25 -0.8 30.6 41 -12.5 9.4
20:20 1026 30.3 855 25.25 -0.9 30.4 42 -12.4 9.7
20:25 1026 30.3 856 25.28 -0.8 30.6 40 -12.7 9.1
20:30 1026 30.3 856 25.28 -0.9 30.3 43 -12.1 10.3
20:35 1026 30.3 855 25.25 -1.6 29.2 44 -12.2 10
20:40 1026 30.3 855 25.25 -1.7 29 43 -12.5 9.4
20:45 1026 30.3 855 25.25 -1.5 29.2 42 -12.9 8.8
20:50 1026 30.3 855 25.25 -1.2 29.9 40 -13.3 8.1
20:55 1026 30.3 856 25.28 -0.8 30.5 38 -13.4 7.8
21:00 1026 30.3 856 25.28 -0.7 30.7 38 -13.5 7.7
21:05 1026 30.3 856 25.28 -0.6 30.9 40 -12.5 9.4
21:10 1026 30.3 856 25.28 -0.6 31 41 -12.2 10.1
21:15 1027 30.33 856 25.28 -0.9 30.3 43 -12 10.4
21:20 1027 30.33 856 25.28 -1.3 29.7 37 -14.1 6.7
21:25 1027 30.33 856 25.28 -0.9 30.4 36 -14.3 6.2
21:30 1027 30.33 856 25.28 -0.6 30.8 36 -13.9 7
21:35 1026 30.3 856 25.28 -0.5 31.1 37 -13.4 7.9
21:40 1026 30.3 856 25.28 -0.8 30.6 39 -13.2 8.2
21:45 1027 30.33 856 25.28 -1.2 29.8 41 -13 8.6
21:50 1027 30.33 856 25.28 -1.6 29 39 -13.8 7.2
21:55 1027 30.33 856 25.28 -1.6 29.1 39 -14 6.8
22:00 1027 30.33 856 25.28 -1.3 29.6 38 -14 6.8
22:05 1027 30.33 856 25.28 -1 30.3 38 -13.7 7.4
22:10 1027 30.33 856 25.28 -0.9 30.4 38 -13.4 7.9
22:15 1027 30.33 856 25.28 -1.2 29.8 42 -12.6 9.4
22:20 1027 30.33 856 25.28 -1.7 29 45 -12.1 10.2
22:25 1027 30.33 856 25.28 -2.1 28.1 46 -12.3 9.9
22:30 1027 30.33 856 25.28 -2.4 27.7 45 -12.7 9.1
22:35 1027 30.33 856 25.28 -2.7 27.1 46 -12.7 9.1
22:40 1027 30.33 856 25.28 -2.7 27.1 47 -12.6 9.4
22:45 1027 30.33 856 25.28 -2.5 27.6 48 -12.1 10.3
22:50 1027 30.33 856 25.28 -3 26.7 48 -12.4 9.6
22:55 1027 30.33 856 25.28 -2.9 26.7 46 -13 8.7
23:00 1027 30.33 856 25.28 -2.8 27 47 -12.5 9.5
23:05 1027 30.33 856 25.28 -3.1 26.5 47 -12.8 8.9
23:10 1027 30.33 856 25.28 -2.8 27 47 -12.5 9.4
23:15 1027 30.33 856 25.28 -3.1 26.3 49 -12.5 9.5
23:20 1027 30.33 856 25.28 -3.6 25.4 52 -12.2 10
23:25 1027 30.33 856 25.28 -3.8 25.1 52 -12.4 9.7
23:30 1027 30.33 856 25.28 -3.5 25.8 50 -12.5 9.4
23:35 1027 30.33 856 25.28 -3.1 26.5 48 -12.6 9.4
23:40 1027 30.33 856 25.28 -2.9 26.7 49 -12.2 10.1
23:45 1027 30.33 856 25.28 -3.4 25.9 50 -12.5 9.6
23:50 1027 30.33 856 25.28 -3.4 25.9 48 -12.8 8.9
23:55 1027 30.33 856 25.28 -3.1 26.4 46 -13.1 8.4
24:00 1027 30.33 856 25.28 -3 26.6 45 -13.2 8.2